Location: Czu?�w
(50.1404°N, 18.9919°E)
Time: 03:34:43
(UTC+00:00)

Cosmos 1697 Rocket - Pass Details

Date: 27 October 2020
Orbit: 831 x 845 km, 71.0° (Epoch: 24 November)

Event Time Altitude Azimuth Distance (km) Brightness Sun altitude
Rises 15:58:54 0° 144° (SE) 3,367 5.6 -5.5°
Reaches altitude 10° 16:03:13 10° 112° (ESE) 2,444 4.6 -6.1°
Maximum altitude 16:04:54 11° 95° (E) 2,349 4.4 -6.4°
Drops below altitude 10° 16:06:36 10° 77° (ENE) 2,452 4.4 -6.7°
Enters shadow 16:08:02 - 64° (ENE) 2,676 4.7 -6.9°
